Location: Baix
(44.7118°N, 4.7648°E)
Time: 01:25:16
(UTC+00:00)

Vanguard 3 - Pass Details

Date: 03 December 2020
Orbit: 508 x 3262 km, 33.3° (Epoch: 19 January)

Event Time Altitude Azimuth Distance (km) Brightness Sun altitude
Rises 20:28:11 0° 240° (WSW) 2,724 - -46.5°
Reaches altitude 10° 20:31:08 10° 217° (SW) 1,725 - -47.0°
Maximum altitude 20:33:27 16° 178° (S) 1,392 - -47.4°
Drops below altitude 10° 20:35:49 10° 138° (SE) 1,772 - -47.8°
Sets 20:38:55 0° 116° (ESE) 2,842 - -48.3°
